Location: Unspecified
(40.7945°N, 111.1337°W)
Time: 18:48:27
(UTC-06:00)

CZ-3 Stage 3 - Pass Details

Date: 28 May 2019
Orbit: 501 x 34691 km, 30.5° (Epoch: 16 June)

Event Time Altitude Azimuth Distance (km) Brightness Sun altitude
Rises 03:58:58 0° 270° (W) 5,814 6.7 -17.8°
Reaches altitude 10° 04:01:13 10° 267° (W) 5,509 6.5 -17.6°
Maximum altitude 04:24:22 65° 190° (S) 8,729 7.6 -14.7°
Drops below altitude 10° 12:22:51 10° 198° (SSW) 24,387 10.4 67.0°
Sets 13:05:09 0° 186° (S) 17,309 9.6 70.4°
